TimeCET,TemperatureF,Dew PointF,Humidity,Sea Level PressureIn,VisibilityMPH,Wind Direction,Wind SpeedMPH,Gust SpeedMPH,PrecipitationIn,Events,Conditions,WindDirDegrees,DateUTC
12:20 AM,64.4,57.2,77,30.06,6.2,WNW,4.6,-,N/A,,Partly Cloudy,300,2012-11-11 23:20:00
12:50 AM,64.4,57.2,77,30.06,6.2,Variable,3.5,-,N/A,,Partly Cloudy,0,2012-11-11 23:50:00
1:20 AM,62.6,55.4,77,30.06,6.2,WNW,4.6,-,N/A,,Partly Cloudy,300,2012-11-12 00:20:00
1:50 AM,62.6,57.2,82,30.06,6.2,Variable,2.3,-,N/A,,Partly Cloudy,0,2012-11-12 00:50:00
2:20 AM,60.8,57.2,88,30.06,6.2,Variable,2.3,-,N/A,,Partly Cloudy,0,2012-11-12 01:20:00
2:50 AM,62.6,57.2,82,30.06,-9999.0,NNW,4.6,-,N/A,,Clear,330,2012-11-12 01:50:00
3:20 AM,62.6,57.2,82,30.06,-9999.0,NW,6.9,-,N/A,,Clear,310,2012-11-12 02:20:00
3:50 AM,60.8,57.2,88,30.06,-9999.0,Variable,3.5,-,N/A,,Clear,0,2012-11-12 02:50:00
4:20 AM,60.8,55.4,82,30.06,-9999.0,West,3.5,-,N/A,,Clear,270,2012-11-12 03:20:00
4:50 AM,60.8,57.2,88,30.06,-9999.0,Variable,2.3,-,N/A,,Clear,0,2012-11-12 03:50:00
5:20 AM,62.6,57.2,82,30.09,6.2,West,5.8,-,N/A,,Partly Cloudy,270,2012-11-12 04:20:00
5:50 AM,62.6,59.0,88,30.12,6.2,Variable,1.2,-,N/A,,Partly Cloudy,0,2012-11-12 04:50:00
6:20 AM,62.6,57.2,82,30.12,6.2,Variable,1.2,-,N/A,,Partly Cloudy,0,2012-11-12 05:20:00
6:50 AM,60.8,57.2,88,30.12,6.2,East,4.6,-,N/A,,Partly Cloudy,80,2012-11-12 05:50:00
7:20 AM,60.8,57.2,88,30.12,6.2,Variable,1.2,-,N/A,,Partly Cloudy,0,2012-11-12 06:20:00
7:50 AM,62.6,57.2,82,30.12,6.2,Variable,1.2,-,N/A,,Partly Cloudy,0,2012-11-12 06:50:00
8:20 AM,64.4,57.2,77,30.12,6.2,ENE,4.6,-,N/A,,Partly Cloudy,70,2012-11-12 07:20:00
8:50 AM,66.2,59.0,78,30.12,6.2,NE,4.6,-,N/A,,Partly Cloudy,40,2012-11-12 07:50:00
9:20 AM,66.2,59.0,78,30.12,6.2,NNE,5.8,-,N/A,,Scattered Clouds,30,2012-11-12 08:20:00
9:50 AM,69.8,60.8,73,30.09,6.2,Variable,2.3,-,N/A,,Scattered Clouds,0,2012-11-12 08:50:00
10:20 AM,71.6,60.8,69,30.09,6.2,East,11.5,-,N/A,,Scattered Clouds,100,2012-11-12 09:20:00
10:50 AM,73.4,62.6,69,30.06,6.2,NE,4.6,-,N/A,,Scattered Clouds,50,2012-11-12 09:50:00
11:20 AM,73.4,60.8,65,30.09,6.2,West,6.9,-,N/A,,Partly Cloudy,270,2012-11-12 10:20:00
11:50 AM,75.2,60.8,61,30.06,6.2,WNW,9.2,-,N/A,,Partly Cloudy,290,2012-11-12 10:50:00
12:20 PM,73.4,60.8,65,30.09,6.2,West,9.2,-,N/A,,Partly Cloudy,270,2012-11-12 11:20:00
12:50 PM,73.4,62.6,69,30.09,6.2,West,9.2,-,N/A,,Partly Cloudy,260,2012-11-12 11:50:00
1:20 PM,75.2,62.6,65,30.09,6.2,West,5.8,-,N/A,,Partly Cloudy,260,2012-11-12 12:20:00
1:50 PM,75.2,60.8,61,30.09,6.2,NW,4.6,-,N/A,,Partly Cloudy,310,2012-11-12 12:50:00
2:20 PM,75.2,60.8,61,30.09,6.2,NNW,6.9,-,N/A,,Partly Cloudy,330,2012-11-12 13:20:00
2:50 PM,75.2,60.8,61,30.09,6.2,NNW,4.6,-,N/A,,Partly Cloudy,340,2012-11-12 13:50:00
3:20 PM,73.4,62.6,69,30.09,6.2,WSW,5.8,-,N/A,,Partly Cloudy,250,2012-11-12 14:20:00
3:50 PM,73.4,64.4,73,30.09,6.2,SSW,5.8,-,N/A,,Scattered Clouds,200,2012-11-12 14:50:00
4:20 PM,71.6,64.4,78,30.09,6.2,Variable,2.3,-,N/A,,Scattered Clouds,0,2012-11-12 15:20:00
4:50 PM,69.8,62.6,78,30.12,6.2,WSW,5.8,-,N/A,,Partly Cloudy,250,2012-11-12 15:50:00
5:20 PM,68.0,62.6,83,30.15,6.2,West,4.6,-,N/A,,Scattered Clouds,270,2012-11-12 16:20:00
5:50 PM,68.0,62.6,83,30.15,6.2,West,4.6,-,N/A,,Partly Cloudy,280,2012-11-12 16:50:00
6:20 PM,69.8,62.6,78,30.15,6.2,Variable,2.3,-,N/A,,Partly Cloudy,0,2012-11-12 17:20:00
6:50 PM,68.0,62.6,83,30.15,6.2,NNE,2.3,-,N/A,,Partly Cloudy,30,2012-11-12 17:50:00
7:50 PM,68.0,62.6,83,30.18,6.2,Variable,2.3,-,N/A,,Partly Cloudy,0,2012-11-12 18:50:00
8:20 PM,64.4,60.8,88,30.15,5.0,Calm,Calm,-,N/A,,Unknown,0,2012-11-12 19:20:00
8:50 PM,64.4,60.8,88,30.15,5.0,Variable,2.3,-,N/A,,Unknown,0,2012-11-12 19:50:00
9:20 PM,64.4,59.0,83,30.15,5.0,Variable,1.2,-,N/A,,Unknown,0,2012-11-12 20:20:00
9:50 PM,62.6,59.0,88,30.15,5.0,NNE,2.3,-,N/A,,Unknown,30,2012-11-12 20:50:00
10:20 PM,62.6,59.0,88,30.18,5.0,North,3.5,-,N/A,,Partly Cloudy,360,2012-11-12 21:20:00
10:50 PM,62.6,59.0,88,30.18,5.0,NNW,4.6,-,N/A,,Unknown,340,2012-11-12 21:50:00
11:20 PM,62.6,59.0,88,30.18,5.0,NNW,5.8,-,N/A,,Unknown,330,2012-11-12 22:20:00
11:50 PM,64.4,59.0,83,30.18,5.0,North,5.8,-,N/A,,Unknown,350,2012-11-12 22:50:00